Tracking 18980 objects as of 23-Feb-2018
HD Live streaming from Space Station
objects crossing your sky now

SL-16 DEB

Track SL-16 DEB now!
10-day predictions


NORAD ID: 36030
Int'l Code: 1996-051M
Perigee: 646.8 km
Apogee: 677.5 km
Inclination: 70.9 °
Period: 97.8 minutes
Semi major axis: 7033 km
RCS: 0.0174 m2 (small)
Launch date: September 4, 1996
Source: Commonwealth of Independent States (former USSR) (CIS)
Launch site: TYURATAM MISSILE AND SPACE COMPLEX (TTMTR)

Note: This is SATELLITE DEBRIS
aabbcc
Your satellite tracking list
Your tracking list is empty




NASA's NSSDC Master Catalog

Two Line Element Set (TLE):
1 36030U 96051M   18053.13821885  .00000062  00000-0  20401-4 0  9995
2 36030  70.8568 336.7742 0021830 335.5215  24.4897 14.71893940438980
Source of the keplerian elements: AFSPC